Rbgn^[z[y[W
メイン
   新天体発見情報
     Comet C/2017 U4 (PANSTARRS)
投稿するにはまず登録を

スレッド表示 | 新しいものから 前のトピック | 次のトピック | 下へ
投稿者 スレッド
佐藤裕久
投稿日時: 2017-11-29 23:28
モデレータ
登録日: 2005-6-12
居住地: 日本
投稿: 2505
オンライン
Comet C/2017 U4 (PANSTARRS)

R. Weryk (ハワイ大学天文学研究所)の通報によると、10月27日、Haleakalaにある1.8-m 
Pan-STARRS1望遠鏡で得た画像を彗星状と気づかず報告した。その後、外観は少し非対称に見えて、
スタックした発見画像には東に伸びた3" の短い尾の気配がある。
小惑星センターのNEOCP webpageからPCCP webpageに移行した。Werykは「私達が最初にそれを観測
した時に、私はこの天体をちょっと見たけれど、それがその非常にかすかな外観で彗星であるかど
うか確信がなかった」と付け加えた。
M. Micheliの書込みによると、彼とJ. KleynaがK. J. Meech, J. KleynaとL. Wellsが11月16.45日
UT、Mauna Keaにある3.6-m Canada-France-Hawaii Telescopeで得たフォローアップr-バンドCCD画
像を測定し、この天体が明らかに彗星状で、3枚60秒露出でp.a. 100°に約5"の尾が見える。測定に
よる光度は21.1-21.5等であった。

発見位置は次のとおり、

     2017 UT             R.A. (2000) Decl.       Mag.
     Oct. 27.58189    7 51 45.10   +36 03 23.8   21.7
          27.59340    7 51 44.78   +36 03 25.3   21.4
          27.60487    7 51 44.55   +36 03 26.4   21.5

暫定放物線軌道要素と位置推算表は次のとおり、

Orbital elements:
    C/2017 U4 (PANSTARRS)
T 2018 Sept. 3.18195 TT                                 MPCW
q   7.7730908            (2000.0)            P               Q
                   Peri.  157.53039     +0.05370675     +0.93960160
                   Node   245.87436     +0.85059693     +0.13427656
e   1.0            Incl.  158.26078     +0.52306830     -0.31483112
From 43 observations 2017 Oct. 27-Nov. 17.

Ephemeris:
    C/2017 U4 (PANSTARRS)
Date    TT    R. A. (2000) Decl.     Delta      r     Elong.  Phase   m1
2017 10 20    07 54 24.3 +35 49 24   7.9055  8.0160    92.8     7.1  20.5
...
2017 11 04    07 48 26.4 +36 18 21   7.6238  7.9940   108.5     6.8  20.4
...
2017 11 12    07 44 02.9 +36 35 24   7.4829  7.9827   117.1     6.3  20.4
...
2017 11 18    07 40 11.2 +36 48 22   7.3841  7.9744   123.6     5.9  20.4
2017 11 19    07 39 29.7 +36 50 32   7.3683  7.9731   124.7     5.8  20.4
2017 11 20    07 38 47.5 +36 52 40   7.3528  7.9717   125.8     5.8  20.3
...
2017 11 26    07 34 17.5 +37 05 16   7.2643  7.9636   132.4     5.2  20.3
...
2017 12 04    07 27 35.9 +37 20 49   7.1610  7.9531   141.2     4.5  20.3
...
2017 12 19    07 13 14.5 +37 43 03   7.0211  7.9341   156.7     2.8  20.2

(CBET 4454、MPEC 2017-W52)

スレッド表示 | 新しいものから 前のトピック | 次のトピック | トップ

投稿するにはまず登録を
 
© 1999 Tsutomu Seki.